QPF
0.01 0.03 0.07 0.06 0.06 0.06 0.07 0.04 0.03 0.04 0.05 0.07 0.06 0.07 0.07 0.05 0.06 0.06 0.06 0.06 0.05 0.04 0.05 0.05 0.06 0.06 0.05 0.08 0.11 0.14 0.12 0.12 0.08 0.08 0.13 0.17 0.12 0.11 0.08 0.06 0.05 0.06 0.07
0.01 0.02 0.06 0.06 0.06 0.05 0.05 0.05 0.04 0.05 0.05 0.05 0.07 0.10 0.08 0.05 0.05 0.06 0.04 0.05 0.04 0.04 0.05 0.05 0.04 0.06 0.05 0.04 0.06 0.10 0.10 0.09 0.08 0.06 0.08 0.18 0.16 0.11 0.10 0.09 0.06 0.05 0.06
0.01 0.01 0.03 0.05 0.06 0.05 0.05 0.05 0.05 0.05 0.05 0.05 0.08 0.12 0.07 0.05 0.04 0.05 0.04 0.04 0.05 0.04 0.04 0.03 0.03 0.05 0.07 0.07 0.08 0.08 0.06 0.06 0.07 0.06 0.05 0.08 0.11 0.10 0.09 0.08 0.07 0.06 0.05
0.01 0.01 0.01 0.04 0.05 0.04 0.06 0.06 0.05 0.04 0.05 0.06 0.07 0.08 0.06 0.04 0.05 0.04 0.04 0.04 0.05 0.04 0.03 0.03 0.04 0.05 0.07 0.06 0.06 0.07 0.07 0.06 0.05 0.05 0.04 0.04 0.06 0.08 0.10 0.08 0.10 0.09 0.06
0.00 0.01 0.01 0.04 0.05 0.04 0.04 0.07 0.06 0.05 0.04 0.06 0.06 0.07 0.07 0.05 0.05 0.05 0.04 0.04 0.04 0.04 0.04 0.04 0.04 0.04 0.05 0.07 0.08 0.08 0.07 0.05 0.04 0.03 0.04 0.06 0.09 0.10 0.09 0.08 0.10 0.11 0.08
0.00 0.01 0.01 0.04 0.05 0.04 0.04 0.05 0.07 0.06 0.04 0.05 0.05 0.05 0.05 0.05 0.05 0.05 0.03 0.04 0.03 0.03 0.03 0.02 0.03 0.04 0.05 0.06 0.06 0.06 0.06 0.05 0.04 0.04 0.05 0.07 0.09 0.09 0.09 0.07 0.08 0.11 0.09
0.01 0.01 0.01 0.05 0.06 0.05 0.05 0.06 0.05 0.05 0.05 0.05 0.05 0.04 0.04 0.04 0.05 0.04 0.03 0.03 0.04 0.03 0.04 0.03 0.04 0.04 0.04 0.04 0.04 0.04 0.04 0.05 0.03 0.03 0.04 0.06 0.07 0.08 0.06 0.05 0.05 0.05 0.05
0.01 0.01 0.02 0.05 0.07 0.05 0.06 0.07 0.05 0.04 0.05 0.05 0.05 0.06 0.04 0.04 0.04 0.03 0.03 0.03 0.04 0.03 0.05 0.05 0.04 0.04 0.03 0.03 0.03 0.03 0.03 0.03 0.03 0.03 0.03 0.04 0.06 0.06 0.06 0.06 0.04 0.04 0.04
0.01 0.01 0.02 0.04 0.04 0.04 0.07 0.07 0.05 0.06 0.06 0.06 0.06 0.06 0.05 0.04 0.04 0.04 0.03 0.03 0.03 0.03 0.03 0.03 0.03 0.03 0.02 0.02 0.03 0.03 0.04 0.05 0.05 0.03 0.03 0.07 0.09 0.08 0.08 0.09 0.08 0.06 0.06
0.01 0.01 0.02 0.03 0.03 0.04 0.05 0.05 0.05 0.06 0.05 0.06 0.05 0.05 0.05 0.06 0.05 0.04 0.04 0.04 0.04 0.03 0.03 0.03 0.02 0.04 0.04 0.03 0.04 0.05 0.05 0.07 0.03 0.02 0.02 0.05 0.07 0.07 0.07 0.06 0.05 0.04 0.03
0.02 0.03 0.03 0.04 0.04 0.04 0.04 0.04 0.04 0.04 0.03 0.04 0.04 0.04 0.05 0.06 0.05 0.04 0.04 0.04 0.04 0.02 0.02 0.03 0.02 0.03 0.04 0.05 0.05 0.06 0.05 0.04 0.03 0.02 0.03 0.04 0.04 0.06 0.06 0.05 0.04 0.03 0.03
0.03 0.03 0.02 0.03 0.03 0.03 0.03 0.03 0.03 0.02 0.02 0.02 0.03 0.03 0.04 0.05 0.05 0.03 0.04 0.03 0.03 0.03 0.02 0.02 0.02 0.02 0.03 0.10 0.10 0.09 0.08 0.06 0.04 0.05 0.05 0.06 0.06 0.06 0.06 0.04 0.03 0.03 0.03
0.04 0.03 0.03 0.03 0.03 0.03 0.02 0.02 0.01 0.01 0.01 0.01 0.01 0.02 0.02 0.03 0.04 0.04 0.04 0.03 0.03 0.02 0.01 0.01 0.01 0.01 0.01 0.04 0.08 0.08 0.10 0.11 0.09 0.09 0.11 0.09 0.08 0.08 0.06 0.04 0.03 0.03 0.03
0.03 0.03 0.02 0.03 0.02 0.03 0.02 0.02 0.01 0.01 0.01 0.01 0.01 0.02 0.02 0.03 0.03 0.05 0.05 0.03 0.02 0.02 0.01 0.01 0.01 0.01 0.00 0.00 0.01 0.03 0.04 0.06 0.08 0.08 0.10 0.11 0.10 0.08 0.06 0.04 0.03 0.03 0.03
0.03 0.03 0.02 0.02 0.02 0.01 0.02 0.02 0.02 0.02 0.02 0.01 0.01 0.01 0.02 0.03 0.03 0.04 0.03 0.02 0.01 0.01 0.02 0.02 0.01 0.01 0.01 0.01 0.01 0.01 0.02 0.03 0.04 0.06 0.06 0.07 0.09 0.07 0.05 0.04 0.04 0.05 0.05
0.02 0.02 0.03 0.03 0.03 0.02 0.02 0.02 0.02 0.02 0.03 0.03 0.03 0.04 0.03 0.03 0.03 0.03 0.03 0.02 0.02 0.02 0.03 0.03 0.02 0.02 0.02 0.02 0.01 0.01 0.02 0.03 0.04 0.05 0.05 0.05 0.05 0.05 0.03 0.02 0.03 0.03 0.04
0.03 0.03 0.04 0.03 0.04 0.03 0.02 0.03 0.02 0.02 0.02 0.03 0.04 0.04 0.04 0.04 0.03 0.03 0.02 0.01 0.01 0.02 0.03 0.03 0.02 0.02 0.02 0.03 0.02 0.02 0.02 0.02 0.03 0.03 0.04 0.03 0.03 0.03 0.02 0.02 0.03 0.05 0.06
0.02 0.02 0.03 0.03 0.03 0.02 0.01 0.02 0.03 0.02 0.01 0.01 0.03 0.03 0.04 0.06 0.06 0.06 0.04 0.03 0.02 0.01 0.01 0.02 0.01 0.01 0.01 0.01 0.02 0.01 0.02 0.02 0.01 0.01 0.01 0.02 0.01 0.01 0.01 0.02 0.03 0.07 0.09
0.01 0.01 0.02 0.02 0.02 0.02 0.01 0.01 0.02 0.02 0.02 0.01 0.01 0.02 0.03 0.04 0.05 0.04 0.03 0.02 0.01 0.00 0.00 0.01 0.01 0.01 0.01 0.01 0.01 0.00 0.01 0.01 0.01 0.01 0.01 0.01 0.01 0.00 0.01 0.02 0.02 0.06 0.10
0.01 0.01 0.01 0.01 0.02 0.01 0.01 0.00 0.00 0.01 0.01 0.01 0.01 0.01 0.01 0.02 0.03 0.03 0.02 0.02 0.01 0.01 0.01 0.01 0.01 0.01 0.01 0.01 0.01 0.00 0.00 0.00 0.00 0.01 0.01 0.00 0.00 0.00 0.01 0.02 0.03 0.05 0.07
0.01 0.01 0.01 0.02 0.03 0.02 0.01 0.01 0.00 0.01 0.01 0.01 0.01 0.01 0.01 0.01 0.01 0.01 0.02 0.01 0.01 0.01 0.01 0.01 0.00 0.00 0.00 0.00 0.00 0.01 0.00 0.00 0.00 0.00 0.00 0.00 0.00 0.00 0.00 0.01 0.04 0.05 0.07
0.01 0.01 0.01 0.01 0.02 0.02 0.01 0.01 0.00 0.01 0.01 0.01 0.01 0.01 0.01 0.01 0.01 0.01 0.01 0.01 0.01 0.01 0.01 0.00 0.00 0.00 0.00 0.00 0.00 0.00 0.00 0.00 0.00 0.00 0.00 0.00 0.00 0.00 0.00 0.01 0.02 0.04 0.05
0.01 0.01 0.01 0.01 0.01 0.01 0.01 0.01 0.01 0.01 0.01 0.01 0.01 0.01 0.01 0.01 0.01 0.00 0.01 0.01 0.01 0.01 0.01 0.01 0.00 0.00 0.00 0.00 0.00 0.00 0.01 0.00 0.00 0.00 0.00 0.00 0.00 0.00 0.00 0.00 0.01 0.02 0.03
0.00 0.01 0.01 0.01 0.01 0.01 0.01 0.01 0.01 0.01 0.01 0.01 0.01 0.01 0.01 0.01 0.01 0.00 0.01 0.01 0.01 0.01 0.01 0.01 0.00 0.00 0.01 0.01 0.00 0.00 0.01 0.01 0.01 0.00 0.00 0.00 0.00 0.00 0.00 0.00 0.01 0.02 0.03
0.00 0.01 0.01 0.00 0.00 0.00 0.01 0.01 0.01 0.01 0.01 0.01 0.01 0.01 0.01 0.01 0.01 0.01 0.01 0.02 0.02 0.02 0.02 0.01 0.01 0.00 0.00 0.01 0.01 0.00 0.00 0.01 0.01 0.01 0.01 0.00 0.00 0.00 0.00 0.00 0.01 0.02 0.03
0.00 0.00 0.01 0.00 0.00 0.00 0.01 0.01 0.01 0.01 0.01 0.00 0.00 0.00 0.01 0.00 0.00 0.00 0.02 0.02 0.03 0.03 0.03 0.03 0.02 0.01 0.00 0.01 0.01 0.00 0.00 0.00 0.01 0.01 0.01 0.01 0.00 0.00 0.00 0.01 0.01 0.01 0.02
MSLP
1015.98 1015.34 1014.69 1014.11 1013.65 1013.33 1013.13 1013.02 1012.93 1012.81 1012.63 1012.40 1012.16 1011.95 1011.82 1011.78 1011.82 1011.89 1011.92 1011.86 1011.68 1011.40 1011.06 1010.72 1010.46 1010.30 1010.24 1010.19 1010.07 1009.76 1009.18 1008.33 1007.26 1006.11 1005.05 1004.28 1003.92 1004.03 1004.60 1005.52 1006.61 1007.70 1008.62
1016.44 1015.83 1015.22 1014.68 1014.25 1013.94 1013.74 1013.60 1013.46 1013.29 1013.06 1012.79 1012.53 1012.32 1012.21 1012.19 1012.23 1012.30 1012.30 1012.20 1011.97 1011.64 1011.25 1010.89 1010.61 1010.45 1010.38 1010.32 1010.16 1009.81 1009.18 1008.27 1007.15 1005.97 1004.91 1004.15 1003.82 1003.98 1004.60 1005.55 1006.66 1007.73 1008.62
1016.91 1016.35 1015.78 1015.27 1014.87 1014.59 1014.39 1014.24 1014.08 1013.87 1013.61 1013.32 1013.04 1012.83 1012.70 1012.67 1012.70 1012.73 1012.70 1012.55 1012.28 1011.91 1011.50 1011.12 1010.84 1010.68 1010.61 1010.55 1010.39 1010.02 1009.39 1008.49 1007.41 1006.28 1005.28 1004.59 1004.33 1004.53 1005.14 1006.06 1007.09 1008.07 1008.84
1017.34 1016.82 1016.30 1015.84 1015.48 1015.23 1015.05 1014.91 1014.74 1014.53 1014.25 1013.95 1013.66 1013.43 1013.28 1013.22 1013.21 1013.20 1013.12 1012.93 1012.62 1012.24 1011.82 1011.45 1011.18 1011.03 1010.96 1010.89 1010.73 1010.38 1009.79 1008.97 1007.98 1006.98 1006.12 1005.54 1005.36 1005.58 1006.16 1006.98 1007.87 1008.67 1009.26
1017.69 1017.22 1016.74 1016.33 1016.03 1015.82 1015.68 1015.56 1015.41 1015.20 1014.93 1014.62 1014.33 1014.08 1013.91 1013.81 1013.76 1013.70 1013.58 1013.36 1013.04 1012.65 1012.24 1011.88 1011.62 1011.46 1011.38 1011.30 1011.14 1010.83 1010.31 1009.60 1008.77 1007.95 1007.26 1006.83 1006.73 1006.97 1007.48 1008.15 1008.84 1009.41 1009.78
1017.95 1017.52 1017.10 1016.75 1016.50 1016.35 1016.25 1016.17 1016.04 1015.85 1015.59 1015.29 1014.99 1014.73 1014.54 1014.41 1014.33 1014.23 1014.08 1013.85 1013.53 1013.15 1012.76 1012.41 1012.13 1011.95 1011.84 1011.74 1011.57 1011.28 1010.84 1010.27 1009.62 1008.99 1008.50 1008.22 1008.21 1008.44 1008.86 1009.36 1009.83 1010.16 1010.30
1018.14 1017.76 1017.40 1017.11 1016.92 1016.82 1016.77 1016.71 1016.61 1016.44 1016.19 1015.90 1015.60 1015.34 1015.14 1015.00 1014.89 1014.78 1014.62 1014.39 1014.08 1013.72 1013.34 1012.98 1012.69 1012.47 1012.30 1012.15 1011.95 1011.67 1011.30 1010.85 1010.38 1009.95 1009.64 1009.50 1009.55 1009.77 1010.08 1010.41 1010.65 1010.76 1010.71
1018.31 1017.97 1017.67 1017.44 1017.31 1017.25 1017.23 1017.20 1017.11 1016.94 1016.71 1016.42 1016.14 1015.89 1015.69 1015.54 1015.43 1015.32 1015.17 1014.95 1014.66 1014.32 1013.94 1013.58 1013.25 1012.97 1012.72 1012.49 1012.25 1011.96 1011.63 1011.28 1010.95 1010.69 1010.53 1010.50 1010.60 1010.78 1010.98 1011.15 1011.21 1011.13 1010.92
1018.48 1018.19 1017.94 1017.77 1017.69 1017.66 1017.66 1017.63 1017.54 1017.38 1017.14 1016.87 1016.60 1016.36 1016.17 1016.04 1015.93 1015.83 1015.70 1015.50 1015.23 1014.90 1014.53 1014.15 1013.78 1013.43 1013.10 1012.78 1012.47 1012.16 1011.84 1011.56 1011.32 1011.17 1011.12 1011.16 1011.28 1011.41 1011.52 1011.54 1011.45 1011.25 1010.95
1018.67 1018.43 1018.24 1018.13 1018.08 1018.08 1018.08 1018.04 1017.94 1017.76 1017.52 1017.26 1017.00 1016.77 1016.60 1016.48 1016.39 1016.30 1016.18 1016.00 1015.75 1015.44 1015.07 1014.67 1014.26 1013.85 1013.44 1013.05 1012.67 1012.31 1012.00 1011.74 1011.56 1011.48 1011.48 1011.56 1011.66 1011.74 1011.76 1011.67 1011.48 1011.19 1010.85
1018.88 1018.69 1018.57 1018.51 1018.50 1018.52 1018.51 1018.45 1018.33 1018.13 1017.88 1017.61 1017.36 1017.15 1017.00 1016.89 1016.81 1016.73 1016.61 1016.44 1016.20 1015.90 1015.54 1015.13 1014.70 1014.25 1013.79 1013.34 1012.91 1012.52 1012.19 1011.94 1011.78 1011.72 1011.74 1011.81 1011.88 1011.90 1011.84 1011.68 1011.42 1011.09 1010.75
1019.08 1018.96 1018.91 1018.91 1018.93 1018.96 1018.95 1018.87 1018.72 1018.50 1018.24 1017.97 1017.73 1017.53 1017.39 1017.28 1017.20 1017.12 1017.00 1016.83 1016.60 1016.30 1015.95 1015.55 1015.11 1014.65 1014.17 1013.70 1013.25 1012.84 1012.50 1012.25 1012.10 1012.04 1012.04 1012.08 1012.11 1012.07 1011.95 1011.73 1011.43 1011.09 1010.75
1019.25 1019.21 1019.23 1019.29 1019.35 1019.39 1019.37 1019.28 1019.11 1018.88 1018.62 1018.36 1018.13 1017.94 1017.80 1017.69 1017.60 1017.50 1017.36 1017.18 1016.95 1016.66 1016.32 1015.93 1015.52 1015.07 1014.62 1014.16 1013.71 1013.32 1012.98 1012.74 1012.58 1012.50 1012.49 1012.49 1012.47 1012.39 1012.22 1011.97 1011.65 1011.30 1010.97
1019.37 1019.42 1019.51 1019.62 1019.73 1019.78 1019.77 1019.67 1019.50 1019.28 1019.03 1018.78 1018.56 1018.39 1018.25 1018.13 1018.02 1017.89 1017.74 1017.53 1017.29 1017.00 1016.68 1016.32 1015.94 1015.54 1015.12 1014.70 1014.30 1013.93 1013.62 1013.39 1013.24 1013.15 1013.12 1013.09 1013.03 1012.91 1012.72 1012.44 1012.11 1011.76 1011.43
1019.43 1019.55 1019.71 1019.88 1020.02 1020.10 1020.10 1020.02 1019.87 1019.66 1019.44 1019.22 1019.03 1018.88 1018.74 1018.62 1018.49 1018.33 1018.14 1017.92 1017.66 1017.36 1017.05 1016.72 1016.38 1016.02 1015.66 1015.30 1014.95 1014.63 1014.36 1014.15 1014.01 1013.93 1013.88 1013.84 1013.76 1013.62 1013.41 1013.13 1012.80 1012.44 1012.10
1019.41 1019.61 1019.83 1020.04 1020.22 1020.32 1020.35 1020.29 1020.17 1020.01 1019.84 1019.67 1019.52 1019.38 1019.26 1019.14 1018.99 1018.82 1018.60 1018.35 1018.07 1017.78 1017.47 1017.16 1016.84 1016.52 1016.20 1015.89 1015.59 1015.32 1015.09 1014.92 1014.80 1014.73 1014.68 1014.64 1014.56 1014.42 1014.21 1013.94 1013.61 1013.25 1012.88
1019.34 1019.59 1019.86 1020.10 1020.30 1020.43 1020.48 1020.47 1020.40 1020.30 1020.19 1020.08 1019.98 1019.88 1019.78 1019.67 1019.52 1019.33 1019.10 1018.83 1018.54 1018.24 1017.93 1017.62 1017.32 1017.02 1016.72 1016.44 1016.17 1015.93 1015.73 1015.59 1015.49 1015.44 1015.40 1015.36 1015.29 1015.17 1014.98 1014.72 1014.41 1014.05 1013.67
1019.21 1019.50 1019.79 1020.05 1020.27 1020.42 1020.51 1020.55 1020.54 1020.51 1020.47 1020.42 1020.38 1020.33 1020.26 1020.16 1020.02 1019.84 1019.61 1019.35 1019.05 1018.75 1018.43 1018.12 1017.81 1017.50 1017.20 1016.91 1016.65 1016.42 1016.23 1016.10 1016.01 1015.97 1015.95 1015.92 1015.87 1015.77 1015.61 1015.38 1015.08 1014.74 1014.36
1019.02 1019.34 1019.64 1019.91 1020.13 1020.30 1020.43 1020.52 1020.58 1020.62 1020.65 1020.67 1020.69 1020.68 1020.65 1020.58 1020.46 1020.30 1020.09 1019.85 1019.57 1019.27 1018.96 1018.64 1018.30 1017.97 1017.65 1017.33 1017.05 1016.80 1016.60 1016.46 1016.36 1016.32 1016.30 1016.28 1016.24 1016.16 1016.03 1015.83 1015.57 1015.26 1014.91
1018.76 1019.09 1019.39 1019.66 1019.89 1020.08 1020.25 1020.40 1020.53 1020.64 1020.74 1020.82 1020.88 1020.91 1020.91 1020.87 1020.79 1020.67 1020.50 1020.30 1020.06 1019.78 1019.48 1019.16 1018.81 1018.45 1018.09 1017.73 1017.40 1017.12 1016.88 1016.71 1016.59 1016.53 1016.49 1016.46 1016.43 1016.36 1016.25 1016.08 1015.87 1015.61 1015.30
1018.39 1018.73 1019.03 1019.30 1019.54 1019.76 1019.98 1020.18 1020.38 1020.56 1020.72 1020.85 1020.95 1021.01 1021.04 1021.03 1020.98 1020.90 1020.79 1020.65 1020.47 1020.24 1019.98 1019.67 1019.32 1018.94 1018.55 1018.15 1017.78 1017.45 1017.17 1016.95 1016.79 1016.69 1016.61 1016.56 1016.50 1016.42 1016.32 1016.19 1016.02 1015.81 1015.57
1017.90 1018.24 1018.54 1018.82 1019.08 1019.34 1019.61 1019.87 1020.13 1020.37 1020.59 1020.75 1020.88 1020.96 1021.01 1021.03 1021.02 1020.99 1020.95 1020.88 1020.77 1020.62 1020.41 1020.15 1019.82 1019.45 1019.04 1018.62 1018.21 1017.84 1017.52 1017.26 1017.05 1016.88 1016.76 1016.65 1016.55 1016.45 1016.34 1016.23 1016.09 1015.94 1015.77
1017.27 1017.61 1017.92 1018.21 1018.50 1018.80 1019.13 1019.46 1019.78 1020.08 1020.34 1020.54 1020.69 1020.78 1020.84 1020.88 1020.91 1020.93 1020.96 1020.97 1020.95 1020.89 1020.76 1020.55 1020.28 1019.93 1019.55 1019.13 1018.72 1018.33 1017.98 1017.67 1017.41 1017.19 1017.00 1016.82 1016.67 1016.52 1016.38 1016.26 1016.14 1016.04 1015.93
1016.50 1016.85 1017.16 1017.47 1017.80 1018.15 1018.54 1018.94 1019.33 1019.68 1019.98 1020.21 1020.38 1020.48 1020.55 1020.61 1020.68 1020.75 1020.84 1020.94 1021.00 1021.03 1020.99 1020.86 1020.65 1020.37 1020.02 1019.64 1019.25 1018.87 1018.51 1018.18 1017.88 1017.60 1017.34 1017.10 1016.87 1016.66 1016.47 1016.32 1016.21 1016.13 1016.07
1015.64 1015.99 1016.31 1016.63 1016.99 1017.40 1017.84 1018.31 1018.76 1019.17 1019.52 1019.78 1019.97 1020.10 1020.19 1020.27 1020.37 1020.50 1020.64 1020.80 1020.94 1021.05 1021.08 1021.03 1020.90 1020.68 1020.40 1020.07 1019.73 1019.38 1019.04 1018.71 1018.39 1018.07 1017.76 1017.44 1017.14 1016.86 1016.61 1016.42 1016.28 1016.20 1016.15
1014.74 1015.08 1015.40 1015.74 1016.13 1016.57 1017.07 1017.59 1018.10 1018.57 1018.97 1019.27 1019.50 1019.66 1019.79 1019.91 1020.04 1020.20 1020.40 1020.60 1020.80 1020.95 1021.04 1021.05 1020.98 1020.82 1020.60 1020.34 1020.06 1019.77 1019.47 1019.17 1018.85 1018.51 1018.16 1017.79 1017.42 1017.07 1016.75 1016.50 1016.32 1016.21 1016.16
Thickness
5766 5766 5763 5764 5765 5765 5766 5766 5766 5766 5766 5766 5766 5765 5765 5765 5765 5765 5765 5766 5766 5766 5766 5766 5766 5766 5766 5766 5766 5766 5766 5766 5766 5766 5766 5766 5768 5767 5766 5766 5767 5768 5767
5766 5765 5762 5762 5763 5763 5763 5763 5763 5763 5763 5763 5763 5763 5762 5762 5762 5762 5762 5763 5763 5763 5763 5763 5763 5763 5763 5763 5763 5763 5763 5763 5763 5763 5764 5764 5764 5764 5763 5763 5764 5765 5765
5765 5763 5761 5760 5760 5760 5761 5761 5761 5761 5761 5761 5761 5760 5759 5759 5759 5759 5759 5760 5760 5760 5760 5760 5760 5760 5760 5760 5760 5760 5760 5760 5761 5761 5763 5764 5762 5760 5760 5760 5760 5761 5761
5763 5761 5760 5757 5757 5758 5758 5758 5758 5758 5758 5758 5757 5756 5756 5756 5756 5756 5756 5756 5757 5757 5757 5757 5757 5757 5757 5757 5757 5757 5756 5757 5757 5759 5762 5762 5761 5757 5757 5757 5757 5757 5758
5760 5759 5756 5755 5755 5755 5755 5755 5754 5754 5754 5754 5753 5753 5752 5752 5752 5752 5752 5753 5753 5753 5754 5754 5754 5754 5754 5753 5753 5753 5753 5753 5755 5757 5758 5757 5756 5754 5754 5754 5753 5754 5754
5758 5756 5754 5752 5752 5752 5752 5751 5751 5750 5750 5750 5749 5749 5749 5749 5748 5748 5749 5749 5749 5750 5750 5750 5750 5750 5750 5750 5750 5750 5750 5751 5753 5754 5753 5753 5752 5750 5750 5750 5750 5750 5751
5756 5754 5752 5749 5749 5749 5749 5748 5748 5747 5746 5746 5745 5745 5745 5744 5744 5744 5744 5745 5745 5745 5746 5746 5746 5746 5746 5746 5746 5746 5747 5748 5750 5750 5749 5749 5747 5747 5747 5747 5747 5747 5747
5754 5752 5750 5747 5746 5746 5745 5745 5744 5743 5743 5742 5741 5741 5740 5740 5740 5740 5740 5740 5741 5741 5741 5742 5742 5742 5743 5743 5743 5743 5743 5745 5746 5747 5746 5744 5742 5743 5743 5743 5743 5744 5744
5751 5750 5749 5747 5745 5743 5742 5741 5740 5739 5738 5738 5737 5737 5736 5736 5736 5736 5736 5736 5736 5736 5737 5737 5738 5738 5739 5739 5739 5739 5739 5740 5743 5742 5742 5740 5738 5738 5739 5739 5740 5740 5740
5748 5747 5746 5745 5744 5743 5740 5737 5736 5735 5735 5734 5733 5733 5732 5732 5732 5731 5731 5731 5732 5732 5732 5733 5733 5733 5734 5735 5734 5735 5736 5737 5738 5738 5737 5735 5733 5734 5734 5734 5735 5735 5736
5743 5744 5743 5743 5742 5740 5738 5735 5734 5732 5731 5731 5731 5730 5730 5731 5730 5729 5727 5726 5727 5727 5727 5728 5728 5729 5730 5730 5730 5731 5732 5735 5734 5733 5731 5729 5729 5729 5729 5730 5730 5731 5731
5739 5740 5740 5740 5738 5737 5735 5733 5732 5731 5729 5730 5729 5728 5728 5728 5726 5725 5722 5722 5722 5723 5723 5723 5724 5725 5727 5728 5727 5728 5730 5730 5730 5728 5725 5723 5724 5724 5725 5725 5726 5726 5727
5738 5736 5737 5736 5735 5734 5732 5730 5729 5727 5726 5726 5726 5725 5725 5724 5723 5722 5721 5721 5720 5720 5722 5721 5722 5723 5724 5723 5723 5724 5724 5724 5724 5722 5720 5718 5719 5719 5720 5720 5721 5721 5722
5735 5733 5733 5733 5732 5730 5729 5727 5725 5724 5723 5722 5722 5722 5721 5720 5720 5719 5718 5717 5717 5717 5717 5718 5718 5719 5720 5720 5720 5720 5719 5719 5718 5717 5715 5713 5714 5714 5715 5715 5716 5716 5717
5731 5730 5730 5729 5728 5727 5725 5723 5722 5720 5720 5719 5717 5717 5717 5716 5716 5715 5714 5712 5713 5713 5713 5713 5714 5714 5714 5715 5715 5714 5714 5714 5713 5712 5710 5709 5709 5709 5710 5710 5711 5711 5712
5730 5729 5727 5726 5724 5723 5722 5721 5719 5717 5715 5715 5713 5713 5712 5711 5711 5710 5710 5709 5708 5708 5709 5709 5710 5709 5709 5709 5709 5709 5709 5708 5708 5707 5707 5705 5704 5704 5704 5705 5705 5706 5708
5729 5728 5725 5723 5721 5720 5718 5717 5715 5713 5713 5712 5710 5709 5708 5707 5706 5706 5706 5705 5704 5704 5705 5705 5705 5705 5705 5704 5704 5704 5704 5703 5703 5703 5702 5702 5701 5700 5699 5699 5700 5702 5704
5727 5725 5723 5720 5718 5716 5715 5713 5712 5711 5710 5708 5707 5706 5704 5703 5703 5702 5701 5700 5700 5700 5700 5700 5700 5700 5700 5700 5700 5700 5700 5698 5699 5698 5698 5698 5697 5696 5695 5694 5695 5697 5700
5725 5723 5720 5718 5716 5714 5712 5710 5708 5708 5706 5705 5703 5702 5701 5700 5699 5698 5697 5696 5695 5695 5696 5695 5695 5695 5694 5694 5695 5695 5695 5695 5694 5694 5695 5694 5693 5692 5692 5690 5690 5691 5693
5724 5722 5718 5716 5714 5712 5710 5709 5706 5705 5703 5702 5700 5698 5698 5697 5696 5695 5693 5693 5692 5691 5691 5691 5690 5689 5689 5689 5691 5690 5691 5691 5690 5689 5689 5689 5688 5688 5687 5687 5687 5686 5686
5721 5719 5717 5714 5712 5710 5708 5705 5703 5701 5700 5699 5697 5696 5694 5693 5693 5692 5691 5690 5688 5687 5687 5687 5686 5685 5684 5686 5686 5686 5687 5688 5687 5685 5684 5684 5684 5682 5682 5683 5683 5682 5682
5719 5717 5716 5713 5711 5708 5705 5704 5702 5700 5698 5697 5694 5693 5692 5691 5689 5689 5688 5687 5685 5683 5682 5682 5681 5681 5680 5680 5680 5680 5680 5681 5681 5681 5679 5678 5679 5678 5678 5678 5678 5678 5677
5717 5716 5713 5711 5709 5706 5703 5701 5699 5697 5695 5693 5691 5690 5689 5687 5686 5685 5685 5684 5683 5681 5679 5678 5678 5677 5676 5676 5677 5675 5674 5674 5674 5676 5676 5675 5674 5674 5674 5673 5673 5673 5673
5714 5714 5712 5710 5708 5704 5701 5698 5696 5694 5692 5691 5690 5688 5686 5684 5683 5682 5681 5680 5679 5678 5676 5676 5675 5674 5672 5671 5671 5670 5671 5670 5668 5668 5670 5671 5670 5669 5669 5669 5668 5668 5668
5712 5710 5709 5707 5704 5702 5699 5696 5694 5692 5691 5690 5688 5686 5684 5682 5680 5678 5677 5677 5676 5674 5673 5672 5670 5670 5669 5668 5667 5666 5665 5664 5666 5663 5661 5663 5664 5665 5664 5664 5663 5663 5662
5708 5706 5705 5703 5701 5699 5696 5694 5692 5690 5688 5686 5683 5682 5681 5679 5677 5676 5674 5673 5672 5671 5669 5668 5667 5665 5665 5664 5664 5663 5661 5660 5659 5658 5657 5657 5658 5660 5660 5659 5659 5658 5657